COSMOS 2004

Satellite information

Favourite Embed

Satellite Type and Status

PAYLOADIN ORBIT

Key statistics

Satellite COSMOS 2004 at a glance.

Uptime

13285

Days in orbit

Revolutions

≈ 13.7

Per day

Orbit

LEO

Low Earth Orbit

Inclination

83.0

Latest

Satellite identification and parameters

Extended collection of information and parameters for COSMOS 2004.

Object identification

Identified? True

Debris? False

Object name: COSMOS 2004

International designator: 1989-017A

Object number (NORAD): 19826

Object ID (CCSDS): 19826

Country: COMMONWEALTH OF INDEPENDENT STATES (CIS)

Current information (Y/N): Y

RCS size: LARGE

Orbital parameters

Period: 104.917 minutes

Inclination: 82.9519 deg

SMA: 7368.7 km

Apoapsis: 1013.654 km

Periapsis: 967.477 km

RAAN: 176.9454 deg

Eccentricy: 0.0031333

Argument of periapsis: 125.0321 deg

Mean anomaly: 296.4731 deg

Mean motion: 13.72512838 rev/day

Mean motion (dot): 0.00000067 rev/day2

B* drag term: 0.00005595 1/REarth

Two-line elements (TLE)

Creation date: July 8, 2025, 2:27 a.m.

Reference frame: TEME

Reference center: EARTH

Epoch: July 7, 2025, 10:13 p.m. UTC

TLE line 0: 0 COSMOS 2004

TLE line 1: 1 19826U 89017A 25188.92616692 .00000067 00000-0 55950-4 0 9997

TLE line 2: 2 19826 82.9519 176.9454 0031333 125.0321 296.4731 13.72512838821266

Live tracking on map

Real-time ground track for satellite COSMOS 2004.

In-orbit conjunctions

There are no conjunctions computed for COSMOS 2004, at the moment. Check back to stay up to date, as we update our databases every day.

Go to all conjunctions

Associated space launch

Navigation satellite providing location information for the Tsiklon-B navigation system

COSMOS 2004 was lifted into orbit during the mission ‘Kosmos-3M | Parus 64’, on board a Kosmos-3M space rocket.

The launch took place on Feb. 22, 1989, 3:28 a.m. from 132/2.

For more information about the launch, click the button.

Launch to space Kosmos-3M | Parus 64
Kosmos-3M | Parus 64

Agency: N/A

Status: Launch Successful

Launch date: Feb. 22, 1989, 3:28 a.m. UTC

Rocket: Kosmos-3M

Launch pad: 132/2

Location: Plesetsk Cosmodrome, Russian Federation

...

Latest news about this satellite

There are no fresh news available about this satellite. Check back as we update our databases every day.


Newsletter sign-up

Weekly statistics, charts and insights to help you stay on top of the space industry.